| time (UTC) | temp F | wind direction | speed MPH | gust MPH | rain 1hr in | rain 24hr in | rain mn in | humidity % | barometer mb |
| 20260905143340 | 0 | 207 | 4.0 | 5.0 | 0.00 | 0.00 | 0.00 | 1063.5 | |
| 20260905142839 | 0 | 253 | 2.0 | 7.0 | 0.00 | 0.00 | 0.00 | 1063.4 | |
| 20260905142338 | 0 | 290 | 2.0 | 6.0 | 0.00 | 0.00 | 0.00 | 1063.4 | |
| 20260905141834 | 0 | 182 | 2.0 | 2.0 | 0.00 | 0.00 | 0.00 | 1063.5 | |
| 20260905141329 | 0 | 212 | 1.0 | 3.0 | 0.00 | 0.00 | 0.00 | 1063.5 | |
| 20260905140825 | 0 | 182 | 1.0 | 2.0 | 0.00 | 0.00 | 0.00 | 1063.6 | |
| 20260905140320 | 0 | 95 | 1.0 | 2.0 | 0.00 | 0.00 | 0.00 | 1063.5 | |
| 20260905135818 | 0 | 161 | 2.0 | 6.0 | 0.00 | 0.00 | 0.00 | 1063.7 | |
| 20260905135314 | 0 | 155 | 1.0 | 2.0 | 0.00 | 0.00 | 0.00 | 1063.5 | |
| 20260905134809 | 0 | 149 | 1.0 | 3.0 | 0.00 | 0.00 | 0.00 | 1063.3 | |
| 20260905134302 | 0 | 214 | 1.0 | 6.0 | 0.00 | 0.00 | 0.00 | 1063.4 | |
| 20260905133757 | 0 | 138 | 1.0 | 3.0 | 0.00 | 0.00 | 0.00 | 1063.5 | |
| 20260905133253 | 0 | 213 | 1.0 | 6.0 | 0.00 | 0.00 | 0.00 | 1063.6 | |
| 20260905132752 | 0 | 252 | 2.0 | 2.0 | 0.00 | 0.00 | 0.00 | 1063.5 | |
| 20260905132248 | 0 | 160 | 1.0 | 3.0 | 0.00 | 0.00 | 0.00 | 1063.4 | |
| 20260905131742 | 0 | 220 | 1.0 | 2.0 | 0.00 | 0.00 | 0.00 | 1063.3 | |
| 20260905131237 | 0 | 142 | 1.0 | 3.0 | 0.00 | 0.00 | 0.00 | 1063.3 | |
| 20260905130732 | 0 | 183 | 1.0 | 2.0 | 0.00 | 0.00 | 0.00 | 1063.1 | |
| 20260905130231 | 0 | 178 | 1.0 | 1.0 | 0.00 | 0.00 | 0.00 | 1063.0 | |
| 20260905125727 | 0 | 147 | 0.0 | 1.0 | 0.00 | 0.00 | 0.00 | 1063.1 | |
| 20260905125221 | 0 | 151 | 0.0 | 1.0 | 0.00 | 0.00 | 0.00 | 1063.0 | |
| 20260905124718 | 0 | 154 | 0.0 | 1.0 | 0.00 | 0.00 | 0.00 | 1063.3 | |
| 20260905124214 | 0 | 146 | 0.0 | 1.0 | 0.00 | 0.00 | 0.00 | 1062.8 | |
| 20260905123708 | 0 | 149 | 0.0 | 1.0 | 0.00 | 0.00 | 0.00 | 1062.9 | |
| 20260905123206 | 0 | 147 | 0.0 | 0.0 | 0.00 | 0.00 | 0.00 | 1062.8 | |
| 20260905122705 | 0 | 146 | 0.0 | 1.0 | 0.00 | 0.00 | 0.00 | 1062.9 | |
| 20260905122159 | 0 | 148 | 0.0 | 0.0 | 0.00 | 0.00 | 0.00 | 1062.8 | |
| 20260905121654 | 0 | 151 | 0.0 | 1.0 | 0.00 | 0.00 | 0.00 | 1062.8 | |
| 20260905121150 | 0 | 148 | 0.0 | 0.0 | 0.00 | 0.00 | 0.00 | 1062.8 | |
| 20260905120649 | 0 | 147 | 0.0 | 1.0 | 0.00 | 0.00 | 0.00 | 1062.7 | |
| 20260905120143 | 0 | 141 | 0.0 | 2.0 | 0.00 | 0.00 | 0.00 | 1062.6 | |
| 20260905115638 | 0 | 159 | 1.0 | 1.0 | 0.00 | 0.00 | 0.00 | 1062.7 | |
| 20260905115133 | 0 | 146 | 0.0 | 1.0 | 0.00 | 0.00 | 0.00 | 1062.7 | |
| 20260905114632 | 0 | 149 | 0.0 | 1.0 | 0.00 | 0.00 | 0.00 | 1062.5 | |
| 20260905114131 | 0 | 145 | 0.0 | 1.0 | 0.00 | 0.00 | 0.00 | 1062.4 | |
| 20260905113626 | 0 | 147 | 0.0 | 1.0 | 0.00 | 0.00 | 0.00 | 1062.7 | |
| 20260905113121 | 0 | 156 | 0.0 | 1.0 | 0.00 | 0.00 | 0.00 | 1062.5 | |
| 20260905112618 | 0 | 147 | 0.0 | 0.0 | 0.00 | 0.00 | 0.00 | 1062.5 | |
| 20260905112112 | 0 | 151 | 0.0 | 1.0 | 0.00 | 0.00 | 0.00 | 1062.5 | |
| 20260905111611 | 0 | 144 | 0.0 | 1.0 | 0.00 | 0.00 | 0.00 | 1062.6 | |
| 20260905111111 | 0 | 147 | 0.0 | 1.0 | 0.00 | 0.00 | 0.00 | 1062.3 | |
| 20260905110610 | 0 | 150 | 0.0 | 1.0 | 0.00 | 0.00 | 0.00 | 1062.4 | |
| 20260905110105 | 0 | 159 | 1.0 | 2.0 | 0.00 | 0.00 | 0.00 | 1062.3 | |
| 20260905105600 | 0 | 146 | 0.0 | 1.0 | 0.00 | 0.00 | 0.00 | 1062.3 | |
| 20260905105054 | 0 | 148 | 0.0 | 0.0 | 0.00 | 0.00 | 0.00 | 1062.4 | |
| 20260905104550 | 0 | 147 | 0.0 | 0.0 | 0.00 | 0.00 | 0.00 | 1062.4 | |
| 20260905104049 | 0 | 146 | 0.0 | 0.0 | 0.00 | 0.00 | 0.00 | 1062.4 | |
| 20260905103545 | 0 | 142 | 0.0 | 0.0 | 0.00 | 0.00 | 0.00 | 1062.5 | |
| 20260905103041 | 0 | 146 | 0.0 | 0.0 | 0.00 | 0.00 | 0.00 | 1062.4 | |
| 20260905102536 | 0 | 146 | 0.0 | 0.0 | 0.00 | 0.00 | 0.00 | 1062.5 | |
| 20260905102033 | 0 | 146 | 0.0 | 0.0 | 0.00 | 0.00 | 0.00 | 1062.5 | |
| 20260905101530 | 0 | 147 | 0.0 | 0.0 | 0.00 | 0.00 | 0.00 | 1062.7 | |
| 20260905101029 | 0 | 144 | 0.0 | 0.0 | 0.00 | 0.00 | 0.00 | 1062.3 | |
| 20260905100525 | 0 | 149 | 0.0 | 0.0 | 0.00 | 0.00 | 0.00 | 1062.7 | |
| 20260905100020 | 0 | 148 | 0.0 | 0.0 | 0.00 | 0.00 | 0.00 | 1062.7 | |
| 20260905095514 | 0 | 145 | 0.0 | 0.0 | 0.00 | 0.00 | 0.00 | 1062.6 | |
| 20260905095009 | 0 | 148 | 0.0 | 0.0 | 0.00 | 0.00 | 0.00 | 1062.7 | |
| 20260905094504 | 0 | 146 | 0.0 | 0.0 | 0.00 | 0.00 | 0.00 | 1062.3 | |
| 20260905094003 | 0 | 148 | 0.0 | 1.0 | 0.00 | 0.00 | 0.00 | 1062.4 | |
| 20260905093458 | 0 | 147 | 0.0 | 1.0 | 0.00 | 0.00 | 0.00 | 1062.6 | |
| 20260905092954 | 0 | 153 | 0.0 | 1.0 | 0.00 | 0.00 | 0.00 | 1062.5 | |
| 20260905092449 | 0 | 151 | 0.0 | 1.0 | 0.00 | 0.00 | 0.00 | 1062.3 | |
| 20260905091944 | 0 | 156 | 0.0 | 1.0 | 0.00 | 0.00 | 0.00 | 1062.4 | |
| 20260905091439 | 0 | 160 | 1.0 | 1.0 | 0.00 | 0.00 | 0.00 | 1062.2 | |
| 20260905090938 | 0 | 146 | 1.0 | 1.0 | 0.00 | 0.00 | 0.00 | 1062.2 | |
| 20260905090434 | 0 | 145 | 0.0 | 1.0 | 0.00 | 0.00 | 0.00 | 1062.1 | |
| 20260905085932 | 0 | 146 | 0.0 | 1.0 | 0.00 | 0.00 | 0.00 | 1062.0 | |
| 20260905085426 | 0 | 145 | 0.0 | 1.0 | 0.00 | 0.00 | 0.00 | 1062.2 | |
| 20260905084923 | 0 | 150 | 0.0 | 1.0 | 0.00 | 0.00 | 0.00 | 1062.2 | |
| 20260905084422 | 0 | 153 | 0.0 | 1.0 | 0.00 | 0.00 | 0.00 | 1062.0 | |
| 20260905083917 | 0 | 158 | 0.0 | 1.0 | 0.00 | 0.00 | 0.00 | 1062.0 | |
| 20260905083412 | 0 | 154 | 1.0 | 1.0 | 0.00 | 0.00 | 0.00 | 1062.1 | |
| 20260905082908 | 0 | 164 | 1.0 | 1.0 | 0.00 | 0.00 | 0.00 | 1062.0 | |
| 20260905082404 | 0 | 148 | 0.0 | 1.0 | 0.00 | 0.00 | 0.00 | 1062.0 | |
| 20260905081858 | 0 | 144 | 1.0 | 1.0 | 0.00 | 0.00 | 0.00 | 1061.9 | |
| 20260905081353 | 0 | 165 | 1.0 | 1.0 | 0.00 | 0.00 | 0.00 | 1061.8 | |
| 20260905080852 | 0 | 155 | 0.0 | 1.0 | 0.00 | 0.00 | 0.00 | 1062.0 | |
| 20260905080346 | 0 | 149 | 1.0 | 1.0 | 0.00 | 0.00 | 0.00 | 1061.9 | |
| 20260905075845 | 0 | 150 | 1.0 | 1.0 | 0.00 | 0.00 | 0.00 | 1061.9 | |
| 20260905075339 | 0 | 161 | 1.0 | 1.0 | 0.00 | 0.00 | 0.00 | 1062.1 | |
| 20260905074838 | 0 | 167 | 1.0 | 2.0 | 0.00 | 0.00 | 0.00 | 1061.9 | |
| 20260905074329 | 0 | 154 | 0.0 | 1.0 | 0.00 | 0.00 | 0.00 | 1062.0 | |
| 20260905073825 | 0 | 150 | 0.0 | 1.0 | 0.00 | 0.00 | 0.00 | 1061.9 | |
| 20260905073320 | 0 | 158 | 1.0 | 1.0 | 0.00 | 0.00 | 0.00 | 1062.1 | |
| 20260905072820 | 0 | 161 | 0.0 | 1.0 | 0.00 | 0.00 | 0.00 | 1062.2 | |
| 20260905072315 | 0 | 156 | 0.0 | 1.0 | 0.00 | 0.00 | 0.00 | 1062.2 | |
| 20260905071811 | 0 | 152 | 1.0 | 2.0 | 0.00 | 0.00 | 0.00 | 1062.3 | |
| 20260905071308 | 0 | 167 | 1.0 | 1.0 | 0.00 | 0.00 | 0.00 | 1062.4 | |
| 20260905070802 | 0 | 164 | 1.0 | 2.0 | 0.00 | 0.00 | 0.00 | 1062.4 | |
| 20260905070258 | 0 | 160 | 1.0 | 2.0 | 0.00 | 0.00 | 0.00 | 1062.5 | |
| 20260905065757 | 0 | 146 | 1.0 | 2.0 | 0.00 | 0.00 | 0.00 | 1062.3 | |
| 20260905065250 | 0 | 147 | 1.0 | 1.0 | 0.00 | 0.00 | 0.00 | 1062.6 | |
| 20260905064746 | 0 | 140 | 3.0 | 5.0 | 0.00 | 0.00 | 0.00 | 1062.6 | |
| 20260905064241 | 0 | 150 | 0.0 | 1.0 | 0.00 | 0.00 | 0.00 | 1062.7 | |
| 20260905063739 | 0 | 158 | 1.0 | 1.0 | 0.00 | 0.00 | 0.00 | 1062.4 | |
| 20260905063235 | 0 | 148 | 1.0 | 1.0 | 0.00 | 0.00 | 0.00 | 1062.3 | |
| 20260905062726 | 0 | 152 | 1.0 | 2.0 | 0.00 | 0.00 | 0.00 | 1062.6 | |
| 20260905062225 | 0 | 147 | 1.0 | 1.0 | 0.00 | 0.00 | 0.00 | 1062.4 | |
| 20260905061720 | 0 | 154 | 1.0 | 1.0 | 0.00 | 0.00 | 0.00 | 1062.5 | |
| 20260905061215 | 0 | 144 | 1.0 | 1.0 | 0.00 | 0.00 | 0.00 | 1062.5 | |
| 20260905060714 | 0 | 149 | 0.0 | 2.0 | 0.00 | 0.00 | 0.00 | 1062.6 | |
| 20260905060211 | 0 | 163 | 1.0 | 2.0 | 0.00 | 0.00 | 0.00 | 1062.3 | |
| 20260905055709 | 0 | 159 | 1.0 | 2.0 | 0.00 | 0.00 | 0.00 | 1062.3 | |
| 20260905055205 | 0 | 148 | 1.0 | 3.0 | 0.00 | 0.00 | 0.00 | 1062.3 | |
| 20260905054700 | 0 | 180 | 2.0 | 2.0 | 0.00 | 0.00 | 0.00 | 1062.5 | |
| 20260905054156 | 0 | 137 | 1.0 | 3.0 | 0.00 | 0.00 | 0.00 | 1062.3 | |
| 20260905053655 | 0 | 175 | 2.0 | 2.0 | 0.00 | 0.00 | 0.00 | 1062.4 | |
| 20260905053150 | 0 | 162 | 1.0 | 3.0 | 0.00 | 0.00 | 0.00 | 1062.3 | |
| 20260905052645 | 0 | 159 | 1.0 | 6.0 | 0.00 | 0.00 | 0.00 | 1062.2 | |
| 20260905052140 | 0 | 162 | 1.0 | 5.0 | 0.00 | 0.00 | 0.00 | 1062.4 | |
| 20260905051635 | 0 | 161 | 3.0 | 5.0 | 0.00 | 0.00 | 0.00 | 1062.3 | |
| 20260905051132 | 0 | 178 | 2.0 | 5.0 | 0.00 | 0.00 | 0.00 | 1062.3 | |
| 20260905050628 | 0 | 165 | 3.0 | 7.0 | 0.00 | 0.00 | 0.00 | 1062.3 | |
| 20260905050124 | 0 | 157 | 2.0 | 3.0 | 0.00 | 0.00 | 0.00 | 1062.1 | |
| 20260905045618 | 0 | 185 | 4.0 | 5.0 | 0.00 | 0.00 | 0.00 | 1062.4 | |
| 20260905045114 | 0 | 178 | 4.0 | 6.0 | 0.00 | 0.00 | 0.00 | 1062.5 | |
| 20260905044614 | 0 | 180 | 4.0 | 5.0 | 0.00 | 0.00 | 0.00 | 1062.3 | |
| 20260905044109 | 0 | 158 | 2.0 | 5.0 | 0.00 | 0.00 | 0.00 | 1062.3 | |
| 20260905043607 | 0 | 182 | 2.0 | 5.0 | 0.00 | 0.00 | 0.00 | 1062.3 | |
| 20260905043103 | 0 | 166 | 3.0 | 6.0 | 0.00 | 0.00 | 0.00 | 1062.3 | |
| 20260905042601 | 0 | 168 | 2.0 | 3.0 | 0.00 | 0.00 | 0.00 | 1062.3 | |
| 20260905042057 | 0 | 142 | 2.0 | 5.0 | 0.00 | 0.00 | 0.00 | 1062.5 | |
| 20260905041552 | 0 | 169 | 2.0 | 5.0 | 0.00 | 0.00 | 0.00 | 1062.3 | |
| 20260905041048 | 0 | 170 | 2.0 | 2.0 | 0.00 | 0.00 | 0.00 | 1062.7 | |
| 20260905040547 | 0 | 160 | 2.0 | 3.0 | 0.00 | 0.00 | 0.00 | 1062.5 | |
| 20260905040046 | 0 | 170 | 3.0 | 3.0 | 0.00 | 0.00 | 0.00 | 1062.6 | |
| 20260905035541 | 0 | 133 | 1.0 | 3.0 | 0.00 | 0.00 | 0.00 | 1062.4 | |
| 20260905035038 | 0 | 160 | 2.0 | 2.0 | 0.00 | 0.00 | 0.00 | 1062.4 | |
| 20260905034534 | 0 | 156 | 1.0 | 2.0 | 0.00 | 0.00 | 0.00 | 1062.6 | |
| 20260905034033 | 0 | 162 | 2.0 | 3.0 | 0.00 | 0.00 | 0.00 | 1062.5 | |
| 20260905033527 | 0 | 155 | 1.0 | 1.0 | 0.00 | 0.00 | 0.00 | 1062.4 | |
| 20260905033023 | 0 | 149 | 2.0 | 2.0 | 0.00 | 0.00 | 0.00 | 1062.5 | |
| 20260905032518 | 0 | 152 | 1.0 | 1.0 | 0.00 | 0.00 | 0.00 | 1062.4 | |
| 20260905032013 | 0 | 151 | 0.0 | 1.0 | 0.00 | 0.00 | 0.00 | 1062.3 | |
| 20260905031509 | 0 | 139 | 0.0 | 0.0 | 0.00 | 0.00 | 0.00 | 1062.4 | |
| 20260905031003 | 0 | 140 | 0.0 | 0.0 | 0.00 | 0.00 | 0.00 | 1062.6 | |
| 20260905030459 | 0 | 141 | 0.0 | 0.0 | 0.00 | 0.00 | 0.00 | 1062.3 | |
| 20260905025957 | 0 | 140 | 0.0 | 0.0 | 0.00 | 0.00 | 0.00 | 1062.4 | |
| 20260905025453 | 0 | 139 | 0.0 | 0.0 | 0.00 | 0.00 | 0.00 | 1062.4 | |
| 20260905024949 | 0 | 138 | 0.0 | 0.0 | 0.00 | 0.00 | 0.00 | 1062.4 | |
| 20260905024449 | 0 | 140 | 0.0 | 0.0 | 0.00 | 0.00 | 0.00 | 1062.1 | |
| 20260905023945 | 0 | 140 | 0.0 | 0.0 | 0.00 | 0.00 | 0.00 | 1062.2 | |
| 20260905023440 | 0 | 139 | 0.0 | 0.0 | 0.00 | 0.00 | 0.00 | 1062.2 | |
| 20260905022939 | 0 | 140 | 0.0 | 0.0 | 0.00 | 0.00 | 0.00 | 1062.2 | |
| 20260905022434 | 0 | 140 | 0.0 | 0.0 | 0.00 | 0.00 | 0.00 | 1062.0 | |
| 20260905021929 | 0 | 139 | 0.0 | 0.0 | 0.00 | 0.00 | 0.00 | 1062.1 | |
| 20260905021424 | 0 | 139 | 0.0 | 0.0 | 0.00 | 0.00 | 0.00 | 1061.7 | |
| 20260905020919 | 0 | 141 | 0.0 | 0.0 | 0.00 | 0.00 | 0.00 | 1061.8 | |
| 20260905020419 | 0 | 138 | 0.0 | 0.0 | 0.00 | 0.00 | 0.00 | 1061.8 | |
| 20260905015919 | 0 | 138 | 0.0 | 0.0 | 0.00 | 0.00 | 0.00 | 1061.7 | |
| 20260905015416 | 0 | 139 | 0.0 | 0.0 | 0.00 | 0.00 | 0.00 | 1061.6 | |
| 20260905014916 | 0 | 137 | 0.0 | 0.0 | 0.00 | 0.00 | 0.00 | 1061.4 | |
| 20260905014411 | 0 | 137 | 0.0 | 0.0 | 0.00 | 0.00 | 0.00 | 1061.4 | |
| 20260905013906 | 0 | 140 | 0.0 | 1.0 | 0.00 | 0.00 | 0.00 | 1061.4 | |
| 20260905013403 | 0 | 147 | 1.0 | 1.0 | 0.00 | 0.00 | 0.00 | 1061.4 | |
| 20260905012857 | 0 | 140 | 0.0 | 0.0 | 0.00 | 0.00 | 0.00 | 1061.4 | |
| 20260905012352 | 0 | 144 | 0.0 | 0.0 | 0.00 | 0.00 | 0.00 | 1061.3 | |
| 20260905011849 | 0 | 147 | 0.0 | 1.0 | 0.00 | 0.00 | 0.00 | 1061.2 | |
| 20260905011344 | 0 | 146 | 0.0 | 0.0 | 0.00 | 0.00 | 0.00 | 1061.2 | |
| 20260905010840 | 0 | 151 | 1.0 | 1.0 | 0.00 | 0.00 | 0.00 | 1061.0 | |
| 20260905010335 | 0 | 144 | 0.0 | 0.0 | 0.00 | 0.00 | 0.00 | 1061.2 | |
| 20260905005831 | 0 | 147 | 0.0 | 2.0 | 0.00 | 0.00 | 0.00 | 1061.1 | |
| 20260905005321 | 0 | 147 | 0.0 | 1.0 | 0.00 | 0.00 | 0.00 | 1060.9 | |
| 20260905004816 | 0 | 143 | 0.0 | 0.0 | 0.00 | 0.00 | 0.00 | 1061.1 | |
| 20260905004311 | 0 | 148 | 1.0 | 1.0 | 0.00 | 0.00 | 0.00 | 1060.8 | |
| 20260905003806 | 0 | 144 | 0.0 | 0.0 | 0.00 | 0.00 | 0.00 | 1061.0 | |
| 20260905003303 | 0 | 144 | 0.0 | 0.0 | 0.00 | 0.00 | 0.00 | 1061.1 | |
| 20260905002758 | 0 | 148 | 0.0 | 0.0 | 0.00 | 0.00 | 0.00 | 1061.2 | |
| 20260905002257 | 0 | 159 | 1.0 | 2.0 | 0.00 | 0.00 | 0.00 | 1061.0 | |
| 20260905001752 | 0 | 176 | 1.0 | 2.0 | 0.00 | 0.00 | 0.00 | 1061.0 | |
| 20260905001251 | 0 | 165 | 2.0 | 2.0 | 0.00 | 0.00 | 0.00 | 1061.1 | |
| 20260905000747 | 0 | 143 | 0.0 | 2.0 | 0.00 | 0.00 | 0.00 | 1061.1 | |
| 20260905000242 | 0 | 165 | 2.0 | 3.0 | 0.00 | 0.00 | 0.00 | 1061.1 | |
| 20260904235737 | 0 | 145 | 1.0 | 3.0 | 0.00 | 0.00 | 0.00 | 1061.1 | |
| 20260904235232 | 0 | 132 | 1.0 | 3.0 | 0.00 | 0.00 | 0.00 | 1061.3 | |
| 20260904234726 | 0 | 168 | 3.0 | 3.0 | 0.00 | 0.00 | 0.00 | 1061.1 | |
| 20260904234222 | 0 | 184 | 3.0 | 6.0 | 0.00 | 0.00 | 0.00 | 1060.9 | |
| 20260904233718 | 0 | 168 | 3.0 | 6.0 | 0.00 | 0.00 | 0.00 | 1061.2 | |
| 20260904233214 | 0 | 156 | 1.0 | 2.0 | 0.00 | 0.00 | 0.00 | 1061.1 | |
| 20260904232711 | 0 | 148 | 2.0 | 6.0 | 0.00 | 0.00 | 0.00 | 1061.0 | |
| 20260904232207 | 0 | 161 | 2.0 | 5.0 | 0.00 | 0.00 | 0.00 | 1061.0 | |
| 20260904231702 | 0 | 162 | 1.0 | 1.0 | 0.00 | 0.00 | 0.00 | 1061.1 | |
| 20260904231157 | 0 | 153 | 1.0 | 1.0 | 0.00 | 0.00 | 0.00 | 1061.2 | |
| 20260904230657 | 0 | 146 | 0.0 | 1.0 | 0.00 | 0.00 | 0.00 | 1061.2 | |
| 20260904230152 | 0 | 138 | 0.0 | 1.0 | 0.00 | 0.00 | 0.00 | 1060.9 | |
| 20260904225650 | 0 | 150 | 0.0 | 1.0 | 0.00 | 0.00 | 0.00 | 1060.9 | |
| 20260904225145 | 0 | 153 | 1.0 | 2.0 | 0.00 | 0.00 | 0.00 | 1061.1 | |
| 20260904224639 | 0 | 171 | 2.0 | 2.0 | 0.00 | 0.00 | 0.00 | 1061.3 | |
| 20260904224138 | 0 | 190 | 3.0 | 3.0 | 0.00 | 0.00 | 0.00 | 1061.1 | |
| 20260904223633 | 0 | 150 | 4.0 | 5.0 | 0.00 | 0.00 | 0.00 | 1061.1 | |
| 20260904223129 | 0 | 139 | 0.0 | 1.0 | 0.00 | 0.00 | 0.00 | 1061.3 | |
| 20260904222624 | 0 | 166 | 0.0 | 2.0 | 0.00 | 0.00 | 0.00 | 1061.0 | |
| 20260904222119 | 0 | 150 | 0.0 | 1.0 | 0.00 | 0.00 | 0.00 | 1061.0 | |
| 20260904221613 | 0 | 151 | 1.0 | 1.0 | 0.00 | 0.00 | 0.00 | 1061.2 | |
| 20260904221107 | 0 | 179 | 3.0 | 3.0 | 0.00 | 0.00 | 0.00 | 1061.0 | |
| 20260904220602 | 0 | 171 | 1.0 | 2.0 | 0.00 | 0.00 | 0.00 | 1061.0 | |
| 20260904220058 | 0 | 189 | 1.0 | 3.0 | 0.00 | 0.00 | 0.00 | 1061.1 | |
| 20260904215558 | 0 | 143 | 1.0 | 2.0 | 0.00 | 0.00 | 0.00 | 1061.1 | |
| 20260904215054 | 0 | 167 | 2.0 | 7.0 | 0.00 | 0.00 | 0.00 | 1061.3 | |
| 20260904214548 | 0 | 184 | 3.0 | 6.0 | 0.00 | 0.00 | 0.00 | 1061.1 | |
| 20260904214039 | 0 | 186 | 1.0 | 3.0 | 0.00 | 0.00 | 0.00 | 1061.3 | |
| 20260904213536 | 0 | 196 | 3.0 | 3.0 | 0.00 | 0.00 | 0.00 | 1061.2 | |
| 20260904213034 | 0 | 246 | 2.0 | 5.0 | 0.00 | 0.00 | 0.00 | 1061.5 | |
| 20260904212532 | 0 | 141 | 1.0 | 6.0 | 0.00 | 0.00 | 0.00 | 1061.5 | |
| 20260904212028 | 0 | 192 | 2.0 | 3.0 | 0.00 | 0.00 | 0.00 | 1061.3 | |
| 20260904211522 | 0 | 209 | 2.0 | 2.0 | 0.00 | 0.00 | 0.00 | 1061.3 | |
| 20260904211018 | 0 | 186 | 2.0 | 2.0 | 0.00 | 0.00 | 0.00 | 1061.3 | |
| 20260904210517 | 0 | 136 | 1.0 | 7.0 | 0.00 | 0.00 | 0.00 | 1061.5 | |
| 20260904210013 | 0 | 113 | 5.0 | 9.0 | 0.00 | 0.00 | 0.00 | 1061.6 | |
| 20260904205508 | 0 | 132 | 2.0 | 6.0 | 0.00 | 0.00 | 0.00 | 1061.7 | |
| 20260904205005 | 0 | 137 | 1.0 | 7.0 | 0.00 | 0.00 | 0.00 | 1061.9 | |
| 20260904204500 | 0 | 163 | 3.0 | 7.0 | 0.00 | 0.00 | 0.00 | 1061.8 | |
| 20260904203956 | 0 | 191 | 3.0 | 3.0 | 0.00 | 0.00 | 0.00 | 1061.8 | |
| 20260904203452 | 0 | 151 | 1.0 | 3.0 | 0.00 | 0.00 | 0.00 | 1061.9 | |
| 20260904202948 | 0 | 133 | 4.0 | 5.0 | 0.00 | 0.00 | 0.00 | 1062.1 | |
| 20260904202444 | 0 | 151 | 3.0 | 3.0 | 0.00 | 0.00 | 0.00 | 1062.1 | |
| 20260904201940 | 0 | 177 | 5.0 | 7.0 | 0.00 | 0.00 | 0.00 | 1062.2 | |
| 20260904201435 | 0 | 187 | 4.0 | 6.0 | 0.00 | 0.00 | 0.00 | 1062.1 | |
| 20260904200931 | 0 | 154 | 1.0 | 6.0 | 0.00 | 0.00 | 0.00 | 1062.1 | |
| 20260904200429 | 0 | 128 | 4.0 | 7.0 | 0.00 | 0.00 | 0.00 | 1062.2 | |
| 20260904195924 | 0 | 132 | 4.0 | 6.0 | 0.00 | 0.00 | 0.00 | 1062.4 | |
| 20260904195422 | 0 | 190 | 1.0 | 10.0 | 0.00 | 0.00 | 0.00 | 1062.3 | |
| 20260904194922 | 0 | 160 | 1.0 | 2.0 | 0.00 | 0.00 | 0.00 | 1062.5 | |
| 20260904194421 | 0 | 150 | 2.0 | 3.0 | 0.00 | 0.00 | 0.00 | 1062.4 | |
| 20260904193917 | 0 | 114 | 1.0 | 2.0 | 0.00 | 0.00 | 0.00 | 1062.5 | |
| 20260904193412 | 0 | 167 | 4.0 | 10.0 | 0.00 | 0.00 | 0.00 | 1062.5 | |
| 20260904192907 | 0 | 126 | 0.0 | 3.0 | 0.00 | 0.00 | 0.00 | 1062.4 | |
| 20260904192403 | 0 | 135 | 2.0 | 5.0 | 0.00 | 0.00 | 0.00 | 1062.6 | |
| 20260904191859 | 0 | 162 | 1.0 | 3.0 | 0.00 | 0.00 | 0.00 | 1062.9 | |
| 20260904191355 | 0 | 180 | 4.0 | 7.0 | 0.00 | 0.00 | 0.00 | 1062.7 | |
| 20260904190852 | 0 | 177 | 4.0 | 5.0 | 0.00 | 0.00 | 0.00 | 1062.6 | |
| 20260904190347 | 0 | 175 | 4.0 | 7.0 | 0.00 | 0.00 | 0.00 | 1062.8 | |
| 20260904185843 | 0 | 146 | 5.0 | 7.0 | 0.00 | 0.00 | 0.00 | 1063.0 | |
| 20260904185338 | 0 | 142 | 3.0 | 8.0 | 0.00 | 0.00 | 0.00 | 1063.1 | |
| 20260904184838 | 0 | 157 | 0.0 | 2.0 | 0.00 | 0.00 | 0.00 | 1063.0 | |
| 20260904184333 | 0 | 192 | 4.0 | 9.0 | 0.00 | 0.00 | 0.00 | 1063.4 | |
| 20260904183828 | 0 | 182 | 5.0 | 6.0 | 0.00 | 0.00 | 0.00 | 1063.0 | |
| 20260904183323 | 0 | 189 | 6.0 | 8.0 | 0.00 | 0.00 | 0.00 | 1063.5 | |
| 20260904182819 | 0 | 156 | 8.0 | 11.0 | 0.00 | 0.00 | 0.00 | 1063.6 | |
| 20260904182314 | 0 | 196 | 3.0 | 5.0 | 0.00 | 0.00 | 0.00 | 1063.4 | |
| 20260904181811 | 0 | 181 | 2.0 | 5.0 | 0.00 | 0.00 | 0.00 | 1063.4 | |
| 20260904181309 | 0 | 126 | 1.0 | 3.0 | 0.00 | 0.00 | 0.00 | 1063.6 | |
| 20260904180804 | 0 | 267 | 4.0 | 6.0 | 0.00 | 0.00 | 0.00 | 1063.7 | |
| 20260904180305 | 0 | 186 | 1.0 | 3.0 | 0.00 | 0.00 | 0.00 | 1063.5 | |
| 20260904175803 | 0 | 144 | 1.0 | 5.0 | 0.00 | 0.00 | 0.00 | 1063.8 | |
| 20260904175305 | 0 | 128 | 1.0 | 3.0 | 0.00 | 0.00 | 0.00 | 1063.6 | |
| 20260904174757 | 0 | 161 | 3.0 | 3.0 | 0.00 | 0.00 | 0.00 | 1063.7 | |
| 20260904174253 | 0 | 224 | 3.0 | 5.0 | 0.00 | 0.00 | 0.00 | 1063.7 | |
| 20260904173750 | 0 | 177 | 5.0 | 8.0 | 0.00 | 0.00 | 0.00 | 1064.0 | |
| 20260904173249 | 0 | 135 | 4.0 | 6.0 | 0.00 | 0.00 | 0.00 | 1064.1 | |
| 20260904172746 | 0 | 251 | 3.0 | 7.0 | 0.00 | 0.00 | 0.00 | 1064.1 | |
| 20260904172244 | 0 | 182 | 3.0 | 3.0 | 0.00 | 0.00 | 0.00 | 1063.9 | |
| 20260904171740 | 0 | 163 | 1.0 | 3.0 | 0.00 | 0.00 | 0.00 | 1063.9 | |
| 20260904171236 | 0 | 148 | 0.0 | 2.0 | 0.00 | 0.00 | 0.00 | 1064.1 | |
| 20260904170732 | 0 | 196 | 3.0 | 5.0 | 0.00 | 0.00 | 0.00 | 1064.1 | |
| 20260904170228 | 0 | 196 | 4.0 | 10.0 | 0.00 | 0.00 | 0.00 | 1064.2 | |
| 20260904165726 | 0 | 178 | 1.0 | 3.0 | 0.00 | 0.00 | 0.00 | 1064.3 | |
| 20260904165221 | 0 | 182 | 2.0 | 7.0 | 0.00 | 0.00 | 0.00 | 1064.3 | |
| 20260904164715 | 0 | 207 | 6.0 | 7.0 | 0.00 | 0.00 | 0.00 | 1064.4 | |
| 20260904164209 | 0 | 162 | 2.0 | 3.0 | 0.00 | 0.00 | 0.00 | 1064.2 | |
| 20260904163706 | 0 | 171 | 3.0 | 7.0 | 0.00 | 0.00 | 0.00 | 1064.3 | |
| 20260904163201 | 0 | 161 | 2.0 | 5.0 | 0.00 | 0.00 | 0.00 | 1064.2 | |
| 20260904162659 | 0 | 210 | 2.0 | 5.0 | 0.00 | 0.00 | 0.00 | 1064.5 | |
| 20260904162154 | 0 | 130 | 5.0 | 8.0 | 0.00 | 0.00 | 0.00 | 1064.2 | |
| 20260904161650 | 0 | 158 | 1.0 | 6.0 | 0.00 | 0.00 | 0.00 | 1064.3 | |
| 20260904161145 | 0 | 203 | 2.0 | 3.0 | 0.00 | 0.00 | 0.00 | 1064.4 | |
| 20260904160641 | 0 | 156 | 4.0 | 6.0 | 0.00 | 0.00 | 0.00 | 1064.3 | |
| 20260904160136 | 0 | 162 | 1.0 | 3.0 | 0.00 | 0.00 | 0.00 | 1064.3 | |
| 20260904155632 | 0 | 171 | 2.0 | 6.0 | 0.00 | 0.00 | 0.00 | 1064.5 | |
| 20260904155126 | 0 | 147 | 1.0 | 3.0 | 0.00 | 0.00 | 0.00 | 1064.6 | |
| 20260904154625 | 0 | 261 | 4.0 | 5.0 | 0.00 | 0.00 | 0.00 | 1064.5 | |
| 20260904154125 | 0 | 291 | 3.0 | 5.0 | 0.00 | 0.00 | 0.00 | 1064.5 | |
| 20260904153620 | 0 | 169 | 2.0 | 2.0 | 0.00 | 0.00 | 0.00 | 1064.5 | |
| 20260904153115 | 0 | 200 | 2.0 | 5.0 | 0.00 | 0.00 | 0.00 | 1064.4 | |
| 20260904152612 | 0 | 146 | 2.0 | 3.0 | 0.00 | 0.00 | 0.00 | 1064.6 | |
| 20260904152107 | 0 | 182 | 1.0 | 3.0 | 0.00 | 0.00 | 0.00 | 1064.6 | |
| 20260904151601 | 0 | 240 | 4.0 | 5.0 | 0.00 | 0.00 | 0.00 | 1064.5 | |
| 20260904151055 | 0 | 257 | 5.0 | 6.0 | 0.00 | 0.00 | 0.00 | 1064.5 | |
| 20260904150550 | 0 | 224 | 4.0 | 9.0 | 0.00 | 0.00 | 0.00 | 1064.4 | |
| 20260904150045 | 0 | 186 | 1.0 | 2.0 | 0.00 | 0.00 | 0.00 | 1064.4 | |
| 20260904145544 | 0 | 164 | 2.0 | 2.0 | 0.00 | 0.00 | 0.00 | 1064.4 | |
| 20260904145039 | 0 | 300 | 7.0 | 8.0 | 0.00 | 0.00 | 0.00 | 1064.3 | |
| 20260904144536 | 0 | 169 | 1.0 | 6.0 | 0.00 | 0.00 | 0.00 | 1064.4 | |
| 20260904144031 | 0 | 223 | 2.0 | 3.0 | 0.00 | 0.00 | 0.00 | 1064.2 |